DELTA 1 DEB, 7149

Orbit data source: Space-Track

DELTA 1 DEB, 7149 is space debris in SSO originally from a launch on Tue, 06 Nov 1973 UTC launched from the Air Force Western Test Range (AFWTR). Debris objects in space refer to the collection of defunct objects orbiting the Earth. Examples of debris include non-operational satellites, rocket bodies, and fragments generated from explosions, collisions, or faulty payload assembly.

Loading next visibility...
Identifier
7149, 1973-086DP
Orbit
SSO
Country
Flag of USUS
Related business
Manufacturer
Unknown
Mission
Spacecraft
Bus & Motor
Unknown
Mass
Unknown
Launch date (UTC)
1973-11-06 (52 years ago)
Launch vehicle
Unknown
Launch site
Air Force Western Test Range (AFWTR)
Object type
Payload
Rocket body
Debris
Shape & HBR
Unknown shape, 0.2 m
Radar Cross Section
Small (<0.1 m²)

Expand to show TLE details & history
Last TLE update: 17 hours ago

TLE from 17 hours ago
0 DELTA 1 DEB
1  7149U 73086DP  26122.29577147  .00000434  00000-0  35227-2 0  9992
2  7149 102.1140 236.9007 0053042 101.7069 284.0167 12.41121928369341
Epoch: 2026-05-02T07:05Z
TLE epoch observation values (Epoch: 2026-05-02T07:05:54.655Z)
Latitude
24.56262°
Longitude
-95.39482°
Altitude
1,494.581 km
Speed
7.123 km/s
True Right ascension
15h 25m 11s
True Declination
24° 26' 42"
Sunlit
Object was in full shadow at epoch
Visualization orbit readout
Latitude
Unknown
Longitude
Unknown
Altitude
Unknown
Speed
Unknown
Apparent Right ascension
Unknown
Apparent Declination
Unknown
Sunlit
N/A
Visualization observer readout
Local Sidereal Time
08:18:44
Azimuth
Unknown
Elevation
Unknown
Doppler factor
Unknown
Orbital elements
Apogee altitude
1,541.215 km
Perigee altitude
1,457.647 km
Semi-major axis
7,877.568 km
Eccentricity
0.0053
Inclination
102.114°
RAAN
236.9007°
Arg. of periapsis
101.7069°
True anomaly
283.42604°
Mean anomaly
284.0167°
Eccentric anomaly
283.72147°
Mean motion
3.10424 °/min
Orbital period
115.97 mins
BSTAR
0.0035227
Loading maneuver chart data...
Computing Atmospheric mass density...
Loading historical data...
Loading historical data...
Loading historical data...
Loading historical data...
Loading historical data...
Loading historical data...
Loading historical data...

Documentation

Showing up to 5 results
|